User: anonymous   Login
Location: Newark
(52.3735°N, 16.9806°E)
Time: 03:06:54
(UTC+00:00)
Language:

ISS - Orbit

View from above orbital plane
View from above orbital plane
View from above satellite
View from above satellite

Ground track
Ground track

The orbit data is extracted from the following two-line orbital elements,

1 25544U 98067A   21298.83982008  .00002580  00000-0  55366-4 0  9994
2 25544  51.6441  56.6938 0003917 140.1742   3.4489 15.48789191308843
Epoch (UTC): 25 October 2021 20:09:20
Eccentricity: 0.0003917
inclination: 51.6441°
perigee height: 417 km
apogee height: 423 km
right ascension of ascending node: 56.6938°
argument of perigee: 140.1742°
revolutions per day: 15.48789191
mean anomaly at epoch: 3.4489°
orbit number at epoch: 30884

The dashed part of the orbit path shows where the satellite is in the earth's shadow,  

DLR